When you browse on this site, cookies collect data to enhance your experience and personalize the content and advertising you see.
Visit our Privacy Policy to learn more. By continuing to use the site, you agree to this use of cookies and data.
  • în România
  • Lista ţărilor
  • Pe 7 zile
  • Temperatura apei
  • Hartă satelitară
  • Meteo pe hartă
  • Widget-uri
  • user-avatar
    Intrare

    Meteo pe oră la Sakkhar

    Astăzi, 16 Iulie, Marţi

    Timp Temperatura Precipitaţii Vânt Presiune Umiditate
    00:00 +34°C° 0 mm 9 m/s 739 mmHg 60%
    01:00 +34°C° 0 mm 9 m/s 739 mmHg 62%
    02:00 +33°C° 0 mm 8 m/s 738 mmHg 65%
    03:00 +33°C° 0 mm 8 m/s 739 mmHg 64%
    04:00 +33°C° 0 mm 7 m/s 739 mmHg 64%
    05:00 +32°C° 0 mm 6 m/s 739 mmHg 66%
    06:00 +33°C° 0 mm 5 m/s 740 mmHg 62%
    07:00 +34°C° 0 mm 5 m/s 740 mmHg 59%
    08:00 +35°C° 0 mm 4 m/s 741 mmHg 56%
    09:00 +37°C° 0 mm 4 m/s 741 mmHg 49%
    10:00 +40°C° 0 mm 3 m/s 741 mmHg 43%
    11:00 +43°C° 0 mm 3 m/s 741 mmHg 35%
    12:00 +44°C° 0 mm 3 m/s 741 mmHg 32%
    13:00 +47°C° 0 mm 4 m/s 740 mmHg 28%
    14:00 +48°C° 0 mm 4 m/s 740 mmHg 25%
    15:00 +49°C° 0 mm 4 m/s 739 mmHg 24%
    16:00 +48°C° 0 mm 3 m/s 739 mmHg 22%
    17:00 +48°C° 0 mm 3 m/s 739 mmHg 23%
    18:00 +47°C° 0 mm 5 m/s 740 mmHg 28%
    19:00 +46°C° 0 mm 7 m/s 740 mmHg 32%
    20:00 +44°C° 0 mm 9 m/s 740 mmHg 36%
    21:00 +42°C° 0 mm 9 m/s 741 mmHg 41%
    22:00 +39°C° 0 mm 9 m/s 741 mmHg 47%
    23:00 +37°C° 0 mm 9 m/s 742 mmHg 52%

    Mâine, 17 Iulie, Miercuri

    Timp Temperatura Precipitaţii Vânt Presiune Umiditate
    00:00 +35°C° 0 mm 8 m/s 741 mmHg 56%
    01:00 +34°C° 0 mm 8 m/s 741 mmHg 60%
    02:00 +33°C° 0 mm 7 m/s 741 mmHg 63%
    03:00 +33°C° 0 mm 7 m/s 741 mmHg 64%
    04:00 +33°C° 0 mm 7 m/s 741 mmHg 64%
    05:00 +33°C° 0 mm 6 m/s 742 mmHg 64%
    06:00 +33°C° 0 mm 6 m/s 742 mmHg 61%
    07:00 +34°C° 0 mm 5 m/s 742 mmHg 59%
    08:00 +35°C° 0 mm 4 m/s 743 mmHg 56%
    09:00 +37°C° 0 mm 4 m/s 743 mmHg 49%
    10:00 +40°C° 0 mm 3 m/s 743 mmHg 42%
    11:00 +43°C° 0 mm 3 m/s 743 mmHg 35%
    12:00 +45°C° 0 mm 3 m/s 742 mmHg 31%
    13:00 +46°C° 0 mm 3 m/s 741 mmHg 27%
    14:00 +48°C° 0 mm 3 m/s 741 mmHg 23%
    15:00 +50°C° 0 mm 4 m/s 740 mmHg 22%
    16:00 +50°C° 0 mm 4 m/s 740 mmHg 20%
    17:00 +51°C° 0 mm 4 m/s 739 mmHg 19%
    18:00 +49°C° 0 mm 6 m/s 740 mmHg 23%
    19:00 +47°C° 0 mm 7 m/s 740 mmHg 28%
    20:00 +45°C° 0 mm 9 m/s 741 mmHg 32%
    21:00 +43°C° 0 mm 8 m/s 741 mmHg 35%
    22:00 +41°C° 0 mm 7 m/s 741 mmHg 38%
    23:00 +39°C° 0 mm 6 m/s 742 mmHg 41%

    Poimâine, 18 Iulie, Joi

    Timp Temperatura Precipitaţii Vânt Presiune Umiditate
    00:00 +38°C° 0 mm 6 m/s 741 mmHg 45%
    01:00 +36°C° 0 mm 6 m/s 741 mmHg 50%
    02:00 +35°C° 0 mm 6 m/s 740 mmHg 55%
    03:00 +34°C° 0 mm 6 m/s 740 mmHg 58%
    04:00 +34°C° 0 mm 6 m/s 741 mmHg 60%
    05:00 +33°C° 0 mm 5 m/s 741 mmHg 63%
    06:00 +34°C° 0 mm 6 m/s 741 mmHg 61%
    07:00 +34°C° 0 mm 6 m/s 742 mmHg 59%
    08:00 +35°C° 0 mm 6 m/s 742 mmHg 57%
    09:00 +37°C° 0 mm 5 m/s 742 mmHg 49%
    10:00 +41°C° 0 mm 5 m/s 742 mmHg 41%
    11:00 +44°C° 0 mm 4 m/s 742 mmHg 33%
    12:00 +45°C° 0 mm 4 m/s 742 mmHg 30%
    13:00 +48°C° 0 mm 4 m/s 741 mmHg 26%
    14:00 +49°C° 0 mm 4 m/s 740 mmHg 22%
    15:00 +50°C° 0 mm 4 m/s 740 mmHg 21%
    16:00 +50°C° 0 mm 4 m/s 739 mmHg 20%
    17:00 +52°C° 0 mm 5 m/s 739 mmHg 19%
    18:00 +49°C° 0 mm 6 m/s 739 mmHg 24%
    19:00 +46°C° 0 mm 8 m/s 739 mmHg 29%
    20:00 +44°C° 0 mm 9 m/s 739 mmHg 34%
    21:00 +42°C° 0 mm 9 m/s 740 mmHg 39%
    22:00 +39°C° 0 mm 9 m/s 740 mmHg 44%
    23:00 +37°C° 0 mm 9 m/s 741 mmHg 49%

    19 Iulie, Vineri

    Timp Temperatura Precipitaţii Vânt Presiune Umiditate
    00:00 +35°C° 0 mm 9 m/s 741 mmHg 54%
    01:00 +34°C° 0 mm 9 m/s 741 mmHg 59%
    02:00 +33°C° 0 mm 9 m/s 741 mmHg 64%
    03:00 +33°C° 0 mm 8 m/s 741 mmHg 66%
    04:00 +32°C° 0 mm 7 m/s 741 mmHg 68%
    05:00 +32°C° 0 mm 7 m/s 741 mmHg 69%
    06:00 +33°C° 0 mm 6 m/s 742 mmHg 67%
    07:00 +33°C° 0 mm 6 m/s 742 mmHg 64%
    08:00 +34°C° 0 mm 5 m/s 743 mmHg 61%
    09:00 +36°C° 0 mm 5 m/s 743 mmHg 53%
    10:00 +40°C° 0 mm 5 m/s 743 mmHg 45%
    11:00 +42°C° 0 mm 5 m/s 743 mmHg 37%
    12:00 +45°C° 0 mm 5 m/s 743 mmHg 33%
    13:00 +46°C° 0 mm 5 m/s 742 mmHg 29%
    14:00 +48°C° 0 mm 5 m/s 741 mmHg 25%
    15:00 +48°C° 0 mm 5 m/s 741 mmHg 25%
    16:00 +48°C° 0 mm 5 m/s 740 mmHg 24%
    17:00 +49°C° 0 mm 5 m/s 740 mmHg 23%
    18:00 +47°C° 0 mm 5 m/s 740 mmHg 26%
    19:00 +46°C° 0 mm 5 m/s 740 mmHg 28%
    20:00 +45°C° 0 mm 6 m/s 741 mmHg 30%
    21:00 +42°C° 0 mm 6 m/s 741 mmHg 36%
    22:00 +41°C° 0 mm 7 m/s 742 mmHg 41%
    23:00 +39°C° 0 mm 7 m/s 742 mmHg 46%

    20 Iulie, Sâmbătă

    Timp Temperatura Precipitaţii Vânt Presiune Umiditate
    00:00 +38°C° 0 mm 7 m/s 742 mmHg 51%
    01:00 +35°C° 0 mm 8 m/s 742 mmHg 57%
    02:00 +34°C° 0 mm 8 m/s 742 mmHg 62%
    03:00 +33°C° 0 mm 7 m/s 743 mmHg 62%
    04:00 +33°C° 0 mm 7 m/s 743 mmHg 63%
    05:00 +33°C° 0 mm 6 m/s 743 mmHg 63%
    06:00 +34°C° 0 mm 6 m/s 743 mmHg 62%
    07:00 +34°C° 0 mm 6 m/s 744 mmHg 60%
    08:00 +35°C° 0 mm 6 m/s 744 mmHg 58%
    09:00 +38°C° 0 mm 6 m/s 744 mmHg 51%
    10:00 +40°C° 0 mm 6 m/s 744 mmHg 44%
    11:00 +42°C° 0 mm 5 m/s 744 mmHg 37%
    12:00 +45°C° 0 mm 5 m/s 743 mmHg 33%
    13:00 +46°C° 0 mm 5 m/s 743 mmHg 29%
    14:00 +48°C° 0 mm 4 m/s 742 mmHg 25%
    15:00 +48°C° 0 mm 4 m/s 742 mmHg 24%
    16:00 +49°C° 0 mm 5 m/s 741 mmHg 23%
    17:00 +49°C° 0 mm 5 m/s 740 mmHg 22%
    18:00 +47°C° 0 mm 5 m/s 741 mmHg 25%
    19:00 +46°C° 0 mm 5 m/s 741 mmHg 27%
    20:00 +45°C° 0 mm 6 m/s 741 mmHg 30%
    21:00 +43°C° 0 mm 7 m/s 741 mmHg 37%
    22:00 +40°C° 0 mm 8 m/s 742 mmHg 43%
    23:00 +38°C° 0 mm 9 m/s 742 mmHg 50%

    21 Iulie, Duminică

    Timp Temperatura Precipitaţii Vânt Presiune Umiditate
    00:00 +37°C° 0 mm 8 m/s 742 mmHg 53%
    01:00 +35°C° 0 mm 8 m/s 741 mmHg 56%
    02:00 +34°C° 0 mm 8 m/s 741 mmHg 59%
    03:00 +34°C° 0 mm 7 m/s 741 mmHg 61%
    04:00 +33°C° 0 mm 7 m/s 741 mmHg 63%
    05:00 +33°C° 0 mm 6 m/s 741 mmHg 66%
    06:00 +33°C° 0 mm 6 m/s 742 mmHg 64%
    07:00 +34°C° 0 mm 6 m/s 742 mmHg 62%
    08:00 +34°C° 0 mm 7 m/s 742 mmHg 60%
    09:00 +38°C° 0 mm 6 m/s 742 mmHg 52%
    10:00 +40°C° 0 mm 6 m/s 742 mmHg 45%
    11:00 +44°C° 0 mm 6 m/s 742 mmHg 37%
    12:00 +45°C° 0 mm 5 m/s 741 mmHg 32%
    13:00 +47°C° 0 mm 5 m/s 741 mmHg 28%
    14:00 +49°C° 0 mm 5 m/s 740 mmHg 23%
    15:00 +49°C° 0 mm 5 m/s 739 mmHg 22%
    16:00 +50°C° 0 mm 5 m/s 739 mmHg 22%
    17:00 +51°C° 0 mm 6 m/s 738 mmHg 21%
    18:00 +49°C° 0 mm 7 m/s 738 mmHg 26%
    19:00 +45°C° 0 mm 8 m/s 738 mmHg 31%
    20:00 +43°C° 0 mm 9 m/s 739 mmHg 36%
    21:00 +40°C° 0 mm 9 m/s 739 mmHg 41%
    22:00 +39°C° 0 mm 9 m/s 739 mmHg 46%
    23:00 +37°C° 0 mm 9 m/s 740 mmHg 51%
    Arată mai mult